THOR ABLESTAR R/B, 893

Orbit data source: Space-Track

THOR ABLESTAR R/B, 893 is space debris in LEO originally from a launch on Tue, 06 Oct 1964 UTC launched from the Air Force Western Test Range (AFWTR). Debris objects in space refer to the collection of defunct objects orbiting the Earth. Examples of debris include non-operational satellites, rocket bodies, and fragments generated from explosions, collisions, or faulty payload assembly.

Loading next visibility...
Identifier
893, 1964-063A
Orbit
LEO
Country
Flag of USUS
Related business
Manufacturer
Aerojet
Mission
Spacecraft
Bus & Motor
ABLESTAR, Unknown motor
Mass
~600 kg wet, 600 kg dry
Launch date (UTC)
1964-10-06 (61 years ago)
Launch vehicle
Unknown
Launch site
Air Force Western Test Range (AFWTR)
Object type
Payload
Rocket body
Debris
Shape & HBR
Unknown
Radar Cross Section
Large (>1 m²)

Expand to show TLE details & history
Last TLE update: 3 hours ago

TLE from 3 hours ago
0 THOR ABLESTAR R/B
1 00893U 64063A   26037.65461703  .00000045  00000-0  51908-4 0  9995
2 00893  90.2250  72.1519 0023870 242.5307 231.2482 13.56311012 34280
Epoch: 2026-02-06T15:42Z
TLE epoch observation values (Epoch: 2026-02-06T15:42:38.911Z)
Latitude
66.51173°
Longitude
-119.78451°
Altitude
1,071.843 km
Speed
7.317 km/s
True Right ascension
16h 50m 40s
True Declination
66° 23' 28"
Sunlit
Object was in daylight at epoch
Visualization orbit readout
Latitude
Unknown
Longitude
Unknown
Altitude
Unknown
Speed
Unknown
Apparent Right ascension
Unknown
Apparent Declination
Unknown
Sunlit
N/A
Visualization observer readout
Local Sidereal Time
21:00:40
Azimuth
Unknown
Elevation
Unknown
Doppler factor
Unknown
Orbital elements
Apogee altitude
1,063.892 km
Perigee altitude
1,028.448 km
Semi-major axis
7,424.307 km
Eccentricity
0.00239
Inclination
90.225°
RAAN
72.1519°
Arg. of periapsis
242.5307°
True anomaly
231.03528°
Mean anomaly
231.2482°
Eccentric anomaly
231.1417°
Mean motion
3.39281 °/min
Orbital period
106.11 mins
BSTAR
0.000051908
Loading maneuver chart data...
Computing Atmospheric mass density...
Loading historical data...
Loading historical data...
Loading historical data...
Loading historical data...
Loading historical data...
Loading historical data...
Loading historical data...
Other satellites on launch #63 in the year 1964 (1964-10-06 UTC)

Documentation

Showing up to 5 results
|